Volver al catálogo

THOR ABLESTAR DEB

ActivoLEO
NORAD 325·DEBRIS·🇺🇸 United States

Lanzado Jun 29, 1961 desde Cape Canaveral Space Force Station

Loading…

Próximos Pases (próximas 24 horas)

TLE

ActualizadoSource: Space-Track

Época: Sep 13, 2026, 08:08 UTC

1 00325U 61015DB  26256.33950798  .00000682  00000-0  33134-3 0  9991
2 00325  66.9123 237.6067 0059828 317.5736  42.0742 14.23247520345702

Sigue THOR ABLESTAR DEB en tiempo real con AllMySat

Download on the App Store